Cheektowaga, NY

5:01 PM EDT on September 27, 2016 (GMT -0400)
Buffalo Niagara International

Weather History for KBUF - November, 2014

Change the Weather History Date:

Friday, November 14, 2014

  Actual Average Record
Temperature  
Mean Temperature 31 °F 41 °F  
Max Temperature 35 °F 48 °F 69 °F (1994)
Min Temperature 26 °F 35 °F 15 °F (1986)
Degree Days  
Heating Degree Days 34 24  
Month to date heating degree days 305 301  
Since 1 July heating degree days 794 906  
Cooling Degree Days 0 0  
Month to date cooling degree days 0 0  
Year to date cooling degree days 516 544  
Moisture  
Dew Point 20 °F    
Average Humidity 67    
Maximum Humidity 78    
Minimum Humidity 56    
Precipitation  
Precipitation T in 0.14 in 1.93 in (1871)
Month to date precipitation 0.65 1.84  
Year to date precipitation 38.32 34.42  
Snow  
Snow T in 0.30 in 9.50 in (1997)
Month to date snowfall 0.2 2.4  
Since 1 July snowfall 0.2 3.3  
Since 1 September snowfall 0.2 3.3  
Snow Depth T in    
Sea Level Pressure  
Sea Level Pressure 30.14 in    
Wind  
Wind Speed 11 mph (West)    
Max Wind Speed 17 mph    
Max Gust Speed 24 mph    
Visibility 10 miles    
Events Snow    
T = Trace of Precipitation, MM = Missing Value Source: NWS Daily Summary

Daily Weather History Graph

Daily Weather History Graph

Search for Another Location

Airport or City:

Trip Planner

Search our weather history database for the weather conditions in past years. The results will help you decide how hot, cold, wet, or windy it might be!

Date:

Astronomy

Nov. 14, 2014 Rise Set
Actual Time 7:05 AM EST 4:52 PM EST
Civil Twilight 6:35 AM EST 5:22 PM EST
Nautical Twilight 6:01 AM EST 5:57 PM EST
Astronomical Twilight 5:27 AM EST 6:30 PM EST
Moon No Moon Rise 12:53 PM EST (11/14)
Length of Visible Light 10h 47m
Length of Day
9h 46m
Waning Gibbous, 49% of the Moon is Illuminated
Nov 14
Waning Gibbous
Nov 22
New
Nov 29
First Quarter
Dec 6
Full
Dec 14
Last Quarter

Hourly Weather History & Observations

Time (EST) Temp. Windchill Dew Point Humidity Pressure Visibility Wind Dir Wind Speed Gust Speed Precip Events Conditions
12:54 AM 27.0 °F 17.3 °F 19.0 °F 72% 30.08 in 10.0 mi West 10.4 mph - N/A   Partly Cloudy
1:54 AM 28.0 °F 19.3 °F 19.0 °F 69% 30.08 in 10.0 mi West 9.2 mph - N/A   Partly Cloudy
2:54 AM 27.0 °F 18.0 °F 19.0 °F 72% 30.08 in 10.0 mi West 9.2 mph - N/A   Partly Cloudy
3:54 AM 27.0 °F 16.7 °F 18.0 °F 69% 30.07 in 10.0 mi West 11.5 mph 18.4 mph N/A   Clear
4:54 AM 27.0 °F 16.1 °F 19.0 °F 72% 30.07 in 10.0 mi West 12.7 mph - N/A   Partly Cloudy
5:54 AM 26.1 °F 15.0 °F 19.0 °F 75% 30.08 in 10.0 mi West 12.7 mph - N/A   Partly Cloudy
6:54 AM 27.0 °F 16.1 °F 19.9 °F 75% 30.08 in 10.0 mi West 12.7 mph - N/A   Mostly Cloudy
7:54 AM 27.0 °F 16.7 °F 19.9 °F 75% 30.09 in 10.0 mi West 11.5 mph - N/A   Mostly Cloudy
8:54 AM 30.0 °F 20.5 °F 21.9 °F 72% 30.10 in 10.0 mi West 11.5 mph - N/A   Mostly Cloudy
9:54 AM 32.0 °F 22.5 °F 23.0 °F 69% 30.12 in 10.0 mi West 12.7 mph - N/A   Scattered Clouds
10:54 AM 33.1 °F 24.4 °F 21.9 °F 64% 30.14 in 10.0 mi WNW 11.5 mph - N/A   Mostly Cloudy
11:54 AM 34.0 °F 24.6 °F 21.0 °F 59% 30.14 in 10.0 mi West 13.8 mph - N/A   Mostly Cloudy
12:54 PM 34.0 °F 24.6 °F 19.9 °F 56% 30.13 in 10.0 mi West 13.8 mph - N/A   Mostly Cloudy
1:54 PM 34.0 °F 25.5 °F 21.0 °F 59% 30.13 in 10.0 mi WNW 11.5 mph - 0.00 in Snow Light Snow
2:54 PM 34.0 °F 26.6 °F 19.0 °F 54% 30.14 in 9.0 mi WNW 9.2 mph - 0.00 in Snow Light Snow
3:54 PM 33.1 °F 24.9 °F 19.9 °F 59% 30.15 in 10.0 mi West 10.4 mph - 0.00 in Snow Light Snow
4:54 PM 33.1 °F 24.9 °F 19.0 °F 56% 30.17 in 9.0 mi WNW 10.4 mph - 0.00 in Snow Light Snow
5:54 PM 30.0 °F 22.4 °F 24.1 °F 79% 30.19 in 7.0 mi WNW 8.1 mph - 0.00 in Snow Light Snow
6:54 PM 32.0 °F 24.2 °F 21.9 °F 66% 30.21 in 9.0 mi WNW 9.2 mph - 0.00 in Snow Light Snow
7:54 PM 30.9 °F 21.7 °F 21.9 °F 69% 30.22 in 9.0 mi West 11.5 mph - 0.00 in Snow Light Snow
8:54 PM 30.0 °F 21.7 °F 19.9 °F 66% 30.23 in 10.0 mi West 9.2 mph - 0.00 in   Scattered Clouds
9:54 PM 30.0 °F 21.1 °F 19.0 °F 64% 30.24 in 10.0 mi West 10.4 mph - N/A   Mostly Cloudy
10:54 PM 30.0 °F 21.7 °F 21.0 °F 69% 30.26 in 10.0 mi West 9.2 mph - N/A   Mostly Cloudy
11:54 PM 28.0 °F 20.0 °F 21.9 °F 78% 30.27 in 10.0 mi West 8.1 mph - N/A   Mostly Cloudy